Location: Pilipovskiye Korichintsy
(49.1833°N, 27.4667°E)
Time: 22:24:37
(UTC+00:00)

Cosmos 2360 - Pass Details

Date: 14 July 2020
Orbit: 844 x 858 km, 70.8° (Epoch: 10 August)

Event Time Altitude Azimuth Distance (km) Brightness Sun altitude
Rises 00:51:59 0° 328° (NNW) 3,442 7.7 -11.1°
Reaches altitude 10° 00:54:30 10° 323° (NW) 2,502 6.9 -10.9°
Maximum altitude 01:00:04 52° 249° (WSW) 1,059 4.4 -10.3°
Drops below altitude 10° 01:05:35 10° 174° (S) 2,485 6.2 -9.8°
Sets 01:08:04 0° 170° (S) 3,417 7.0 -9.5°
